Showing default

NIGERIASAT 1, 27941

Orbit data source: Space-Track

NIGERIASAT 1, 27941 is a payload satellite owned by NASRDA (NG) in SSO that was launched on Sat, 27 Sep 2003 UTC via a KOSMOS 11K65M launch vehicle from the Plesetsk Missile And Space Complex (PKMTR). Payload-class satellites include a variety of spacecraft equipped with specific instruments for various scientific and technological missions. These include communications satellites like Starlink; space stations such as the ISS; scientific satellites like the Hubble; Earth observation satellites from companies like Planet Labs, Umbra, and HawkEye 360; GPS; miniature CubeSats for education and research; and military/defense satellites.

Loading next visibility...
Identifier
27941, 2003-042C
Orbit
SSO
Country
Flag of NGNG / NIG
Related business
Manufacturer
SSTL
Mission
Non-operational Civil Imaging
Bus & Motor
SSTL-100, Unknown motor
Mass
80 kg wet, 80 kg dry
Launch date (UTC)
2003-09-27 (22 years ago)
Launch vehicle
KOSMOS 11K65M
Launch site
Plesetsk Missile And Space Complex (PKMTR)
Object type
Payload
Rocket body
Debris
Shape & HBR
Box + 1 Arm, 3.3 m
Radar Cross Section
0.540 m², Medium (>0.1 m² and < 1m²)

Expand to show TLE details & history
Last TLE update: 6 hours ago

TLE from 6 hours ago
0 NIGERIASAT 1
1 27941U 03042C   25308.43583610  .00001614  00000-0  17342-3 0  9992
2 27941  98.0035 132.4105 0041997 309.7721  49.9800 14.89397832190368
Epoch: 2025-11-04T10:27Z
TLE epoch observation values (Epoch: 2025-11-04T10:27:36.239Z)
Latitude
0.00003°
Longitude
-68.41339°
Altitude
584.071 km
Speed
7.578 km/s
True Right ascension
08h 49m 38s
True Declination
0° 00' 00"
Sunlit
Object was in daylight at epoch
Visualization orbit readout
Latitude
Unknown
Longitude
Unknown
Altitude
Unknown
Speed
Unknown
Apparent Right ascension
Unknown
Apparent Declination
Unknown
Sunlit
N/A
Visualization observer readout
Local Sidereal Time
12:10:13
Azimuth
Unknown
Elevation
Unknown
Doppler factor
Unknown
Orbital elements
Apogee altitude
626.142 km
Perigee altitude
567.556 km
Semi-major axis
6,974.986 km
Eccentricity
0.0042
Inclination
98.0035°
RAAN
132.4105°
Arg. of periapsis
309.7721°
True anomaly
50.3498°
Mean anomaly
49.98°
Eccentric anomaly
50.16477°
Mean motion
3.72587 °/min
Orbital period
96.62 mins
BSTAR
0.00017342
Loading maneuver chart data...
Computing Atmospheric mass density...
Loading historical data...
Loading historical data...
Loading historical data...
Loading historical data...
Loading historical data...
Loading historical data...
Loading historical data...
Other satellites on launch #42 in the year 2003 (2003-09-27 UTC)

Documentation

Showing up to 5 results
|